Retour au catalogue

STARLINK-11173

ActifCommunicationsVLEO
NORAD 60192·PAYLOAD·🇺🇸 United States

Lancé Jul 3, 2024 depuis Cape Canaveral Space Force Station

Loading…

Prochains Passages (prochaines 24 heures)

TLE

FraisSource: CelesTrak SupGP

Époque: Sep 14, 2026, 22:26 UTC

1 60192C 24124K   26257.93520833 -.00031413  00000+0 -25876-3 0  2577
2 60192  53.1567 308.4834 0001095  87.4980 332.0020 15.69724622    13

Suivez STARLINK-11173 en temps réel avec AllMySat

Download on the App Store